Starlink 31161

operational
NORAD ID: 58795 Int'l Des: 2024-012 Owner: SPXS Country: US Constellation: starlink
LEOCIRCULAR

Starlink 31161について

説明を読み込み中...

リアルタイム位置

3D地球を読み込み中...

次回通過

高度履歴

Altitude vs Time

uPlot chart will show altitude changes over time

軌道要素

1 58795U 24012J 25258.22764810 .00000184 00000-0 16203-4 0 9994
2 58795 43.0027 75.9645 0001711 269.4188 90.6467 15.27580491 94407
Epoch: Sep 15, 2025 • Age: 23 hours

現在のステータス

高度 484.1 km
速度 7.62 km/s
衛星直下点 -8.23°S, 159.95°W
打ち上げ日 Jan 15, 2024
運用期間 1.6 years
タイプ internet

技術仕様

分類 Payload
質量 730.00 kg
乾燥質量 700.00 kg
総質量 730.00 kg
長さ 0.30 m
直径 4.10 m
スパン 29.00 m
形状 Box + pan
製造者 SPXS
バスタイプ Starlink V2M
フェーズステータス In Orbit
所有者/国 SPXS/US

大規模コンステレーション

Loading constellations...